This is the latest recevied weather packets stored in our database for station/object N4CRH-13. If no packets are shown the sender has not sent any weather packets the latest 10 day(s).
| Time | Temp. | Humidity | Pressure | Rain* | Wind** | Luminosity | Snow |
|---|---|---|---|---|---|---|---|
| 1778206698 | 10.56° C | 52% | 1293.2 hPa | 0 mm | - | 0 W/m² | - |
| 1778206395 | 10° C | 49% | 1293.1 hPa | 0 mm | - | 0 W/m² | - |
| 1778206091 | 10° C | 55% | 1293.1 hPa | 0 mm | - | 0 W/m² | - |
| 1778205789 | 10.56° C | 50% | 1292.9 hPa | 0 mm | - | 1 W/m² | - |
| 1778205485 | 10.56° C | 48% | 1293.1 hPa | 0 mm | - | 2 W/m² | - |
| 1778205183 | 10.56° C | 49% | 1292.9 hPa | 0 mm | - | 3 W/m² | - |
| 1778204880 | 11.11° C | 50% | 1292.8 hPa | 0 mm | - | 5 W/m² | - |
| 1778204577 | 12.22° C | 43% | 1292.5 hPa | 0 mm | - | 7 W/m² | - |
| 1778204272 | 12.22° C | 42% | 1292.6 hPa | 0 mm | - | 9 W/m² | - |
| 1778203969 | 12.78° C | 40% | 1292.9 hPa | 0 mm | - | 12 W/m² | - |
| 1778203666 | 13.33° C | 38% | 1292.5 hPa | 0 mm | - | 17 W/m² | - |
| 1778203363 | 13.33° C | 38% | 1292.6 hPa | 0 mm | - | 22 W/m² | - |
| 1778203061 | 13.89° C | 37% | 1292.4 hPa | 0 mm | - | 21 W/m² | - |
| 1778202758 | 14.44° C | 35% | 1292.4 hPa | 0 mm | - | 17 W/m² | - |
| 1778202455 | 14.44° C | 34% | 1292.5 hPa | 0 mm | - | 22 W/m² | - |
| 1778202153 | 15° C | 32% | 1292.4 hPa | 0 mm | - | 30 W/m² | - |
| 1778201850 | 15° C | 32% | 1292.4 hPa | 0 mm | - | 39 W/m² | - |
| 1778201547 | 15° C | 34% | 1292.4 hPa | 0 mm | - | 51 W/m² | - |
| 1778201242 | 15.56° C | 31% | 1292.4 hPa | 0 mm | - | 46 W/m² | - |
| 1778200939 | 15.56° C | 31% | 1292.4 hPa | 0 mm | - | 50 W/m² | - |
| 1778200636 | 16.11° C | 32% | 1292.5 hPa | 0 mm | - | 87 W/m² | - |
| 1778200333 | 16.67° C | 33% | 1292.6 hPa | 0 mm | - | 65 W/m² | - |
| 1778200029 | 16.11° C | 31% | 1292.6 hPa | 0 mm | - | 101 W/m² | - |
| 1778199727 | 15° C | 35% | 1292.6 hPa | 0 mm | - | 73 W/m² | - |
| 1778199422 | 15° C | 36% | 1292.5 hPa | 0 mm | - | 71 W/m² | - |
* Rain latest hour (hover to see other rain measurements)
** Current wind speed in m/s (hover to see current wind gust speed)